軌道要素
Epoch 2020 Nov. 7.0 TT = JDT 2459160.5
T 2020 Oct. 20.17901 TT Rudenko
q 0.3421784 (2000.0) P Q
z -0.0008877 Peri. 8.89578 +0.49927226 -0.65322423
+/-0.0000189 Node 53.53870 +0.74504410 -0.01170837
e 1.0003038 Incl. 45.05399 +0.44230814 +0.75707399
From 135 observations 2020 Aug. 2-Dec. 9, mean residual 1".0.
|